Year,Month,Day,Hour,Minute,Value (Times are PST for windgust in km/hr)
2020,02,01,00,00,6.40
2020,02,01,00,01,1.60
2020,02,01,00,02,19.30
2020,02,01,00,03,20.90
2020,02,01,00,04,3.20
2020,02,01,00,11,4.80
2020,02,01,00,16,11.30
2020,02,01,00,17,6.40
2020,02,01,00,18,6.40
2020,02,01,00,21,8.10
2020,02,01,00,22,4.80
2020,02,01,00,23,8.10
2020,02,01,00,24,4.80
2020,02,01,00,25,4.80
2020,02,01,00,26,3.20
2020,02,01,00,27,11.30
2020,02,01,00,28,16.10
2020,02,01,00,29,17.70
2020,02,01,00,30,16.10
2020,02,01,00,31,4.80
2020,02,01,00,32,8.10
2020,02,01,00,33,8.10
2020,02,01,00,34,14.50
2020,02,01,00,42,29.00
2020,02,01,00,43,30.60
2020,02,01,00,44,8.10
2020,02,01,00,45,4.80
2020,02,01,00,46,1.60
2020,02,01,00,47,45.10
2020,02,01,00,48,3.20
2020,02,01,00,49,1.60
2020,02,01,00,50,3.20
2020,02,01,00,51,24.20
2020,02,01,00,52,27.40
2020,02,01,00,53,27.40
2020,02,01,00,54,1.60
2020,02,01,00,55,1.60
2020,02,01,00,56,20.90
2020,02,01,00,57,1.60
2020,02,01,01,00,1.60
2020,02,01,01,02,3.20
2020,02,01,01,03,6.40
2020,02,01,01,04,1.60
2020,02,01,01,05,1.60
2020,02,01,01,06,1.60
2020,02,01,01,07,1.60
2020,02,01,01,11,1.60
2020,02,01,01,13,1.60
2020,02,01,01,14,1.60
2020,02,01,01,16,4.80
2020,02,01,01,17,1.60
2020,02,01,01,18,1.60
2020,02,01,01,20,1.60
2020,02,01,01,21,37.00
2020,02,01,01,22,29.00
2020,02,01,01,23,14.50
2020,02,01,01,24,17.70
2020,02,01,01,25,40.20
2020,02,01,01,26,32.20
2020,02,01,01,27,32.20
2020,02,01,01,28,22.50
2020,02,01,01,30,20.90
2020,02,01,01,31,33.80
2020,02,01,01,32,1.60
2020,02,01,01,33,20.90
2020,02,01,01,34,19.30
2020,02,01,01,35,11.30
2020,02,01,01,36,17.70
2020,02,01,01,37,22.50
2020,02,01,01,38,37.00
2020,02,01,01,39,49.90
2020,02,01,01,40,37.00
2020,02,01,01,41,19.30
2020,02,01,01,42,46.70
2020,02,01,01,43,35.40
2020,02,01,01,44,19.30
2020,02,01,01,45,29.00
2020,02,01,01,46,38.60
2020,02,01,01,47,25.70
2020,02,01,01,48,24.20
2020,02,01,01,49,27.40
2020,02,01,01,50,24.20
2020,02,01,01,51,24.20
2020,02,01,01,52,57.90
2020,02,01,01,53,20.90
2020,02,01,01,54,20.90
2020,02,01,01,55,29.00
2020,02,01,01,56,14.50
2020,02,01,01,57,14.50
2020,02,01,01,58,17.70
2020,02,01,01,59,14.50
2020,02,01,02,00,6.40
2020,02,01,02,01,32.20
2020,02,01,02,02,25.70
2020,02,01,02,03,20.90
2020,02,01,02,04,19.30
2020,02,01,02,05,37.00
2020,02,01,02,06,20.90
2020,02,01,02,07,30.60
2020,02,01,02,08,24.20
2020,02,01,02,09,27.40
2020,02,01,02,10,25.70
2020,02,01,02,11,17.70
2020,02,01,02,12,24.20
2020,02,01,02,13,14.50
2020,02,01,02,14,22.50
2020,02,01,02,15,30.60
2020,02,01,02,16,24.20
2020,02,01,02,17,45.10
2020,02,01,02,18,24.20
2020,02,01,02,19,35.40
2020,02,01,02,20,30.60
2020,02,01,02,21,19.30
2020,02,01,02,22,20.90
2020,02,01,02,23,22.50
2020,02,01,02,24,17.70
2020,02,01,02,25,11.30
2020,02,01,02,26,16.10
2020,02,01,02,27,35.40
2020,02,01,02,28,17.70
2020,02,01,02,29,20.90
2020,02,01,02,30,20.90
2020,02,01,02,31,46.70
2020,02,01,02,32,38.60
2020,02,01,02,33,16.10
2020,02,01,02,34,16.10
2020,02,01,02,35,41.80
2020,02,01,02,36,37.00
2020,02,01,02,37,30.60
2020,02,01,02,38,37.00
2020,02,01,02,39,29.00
2020,02,01,02,40,40.20
2020,02,01,02,41,20.90
2020,02,01,02,42,25.70
2020,02,01,02,43,19.30
2020,02,01,02,44,35.40
2020,02,01,02,45,20.90
2020,02,01,02,46,27.40
2020,02,01,02,47,32.20
2020,02,01,02,48,33.80
2020,02,01,02,49,38.60
2020,02,01,02,50,24.20
2020,02,01,02,51,19.30
2020,02,01,02,52,30.60
2020,02,01,02,53,29.00
2020,02,01,02,54,25.70
2020,02,01,02,55,35.40
2020,02,01,02,56,40.20
2020,02,01,02,57,41.80
2020,02,01,02,58,22.50
2020,02,01,02,59,32.20
2020,02,01,03,00,29.00
2020,02,01,03,01,33.80
2020,02,01,03,02,41.80
2020,02,01,03,03,24.20
2020,02,01,03,04,24.20
2020,02,01,03,05,22.50
2020,02,01,03,06,19.30
2020,02,01,03,07,48.30
2020,02,01,03,08,43.50
2020,02,01,03,09,14.50
2020,02,01,03,10,37.00
2020,02,01,03,11,20.90
2020,02,01,03,12,17.70
2020,02,01,03,13,33.80
2020,02,01,03,14,29.00
2020,02,01,03,15,32.20
2020,02,01,03,16,29.00
2020,02,01,03,17,20.90
2020,02,01,03,18,25.70
2020,02,01,03,19,29.00
2020,02,01,03,20,14.50
2020,02,01,03,21,20.90
2020,02,01,03,22,20.90
2020,02,01,03,23,17.70
2020,02,01,03,24,24.20
2020,02,01,03,25,11.30
2020,02,01,03,26,11.30
2020,02,01,03,27,8.10
2020,02,01,03,28,16.10
2020,02,01,03,29,17.70
2020,02,01,03,30,11.30
2020,02,01,03,31,6.40
2020,02,01,03,32,8.10
2020,02,01,03,33,19.30
2020,02,01,03,34,8.10
2020,02,01,03,35,6.40
2020,02,01,03,36,9.60
2020,02,01,03,37,9.60
2020,02,01,03,38,6.40
2020,02,01,03,39,8.10
2020,02,01,03,40,9.60
2020,02,01,03,41,14.50
2020,02,01,03,42,11.30
2020,02,01,03,43,8.10
2020,02,01,03,44,9.60
2020,02,01,03,45,14.50
2020,02,01,03,46,20.90
2020,02,01,03,47,11.30
2020,02,01,03,48,11.30
2020,02,01,03,49,19.30
2020,02,01,03,50,20.90
2020,02,01,03,51,16.10
2020,02,01,03,52,30.60
2020,02,01,03,53,17.70
2020,02,01,03,54,16.10
2020,02,01,03,55,14.50
2020,02,01,03,56,11.30
2020,02,01,03,57,9.60
2020,02,01,03,58,6.40
2020,02,01,03,59,9.60
2020,02,01,04,00,16.10
2020,02,01,04,01,6.40
2020,02,01,04,02,4.80
2020,02,01,04,03,1.60
2020,02,01,04,04,1.60
2020,02,01,04,06,1.60
2020,02,01,04,07,1.60
2020,02,01,04,08,1.60
2020,02,01,04,09,17.70
2020,02,01,04,10,19.30
2020,02,01,04,11,19.30
2020,02,01,04,12,9.60
2020,02,01,04,13,20.90
2020,02,01,04,14,16.10
2020,02,01,04,15,14.50
2020,02,01,04,16,17.70
2020,02,01,04,17,16.10
2020,02,01,04,21,1.60
2020,02,01,04,25,1.60
2020,02,01,04,28,17.70
2020,02,01,04,29,19.30
2020,02,01,04,30,37.00
2020,02,01,04,31,38.60
2020,02,01,04,32,3.20
2020,02,01,04,33,1.60
2020,02,01,04,34,1.60
2020,02,01,04,38,30.60
2020,02,01,04,39,22.50
2020,02,01,04,40,19.30
2020,02,01,04,41,9.60
2020,02,01,04,42,11.30
2020,02,01,04,43,17.70
2020,02,01,04,44,24.20
2020,02,01,04,45,19.30
2020,02,01,04,46,32.20
2020,02,01,04,47,20.90
2020,02,01,04,48,22.50
2020,02,01,04,49,17.70
2020,02,01,04,50,11.30
2020,02,01,04,51,11.30
2020,02,01,04,52,14.50
2020,02,01,04,53,17.70
2020,02,01,04,54,24.20
2020,02,01,04,56,1.60
2020,02,01,04,57,38.60
2020,02,01,04,58,43.50
2020,02,01,04,59,20.90
2020,02,01,05,00,30.60
2020,02,01,05,01,25.70
2020,02,01,05,02,19.30
2020,02,01,05,03,22.50
2020,02,01,05,04,16.10
2020,02,01,05,05,20.90
2020,02,01,05,06,19.30
2020,02,01,05,07,22.50
2020,02,01,05,08,11.30
2020,02,01,05,09,11.30
2020,02,01,05,10,17.70
2020,02,01,05,11,22.50
2020,02,01,05,12,27.40
2020,02,01,05,13,20.90
2020,02,01,05,14,29.00
2020,02,01,05,15,19.30
2020,02,01,05,16,19.30
2020,02,01,05,17,14.50
2020,02,01,05,18,14.50
2020,02,01,05,19,16.10
2020,02,01,05,20,19.30
2020,02,01,05,21,12.90
2020,02,01,05,22,22.50
2020,02,01,05,23,22.50
2020,02,01,05,24,24.20
2020,02,01,05,25,22.50
2020,02,01,05,26,19.30
2020,02,01,05,27,19.30
2020,02,01,05,28,22.50
2020,02,01,05,29,24.20
2020,02,01,05,30,35.40
2020,02,01,05,31,24.20
2020,02,01,05,32,19.30
2020,02,01,05,33,17.70
2020,02,01,05,34,19.30
2020,02,01,05,35,19.30
2020,02,01,05,36,20.90
2020,02,01,05,37,25.70
2020,02,01,05,38,20.90
2020,02,01,05,39,30.60
2020,02,01,05,40,20.90
2020,02,01,05,41,22.50
2020,02,01,05,42,24.20
2020,02,01,05,43,22.50
2020,02,01,05,44,17.70
2020,02,01,05,45,11.30
2020,02,01,05,46,19.30
2020,02,01,05,47,19.30
2020,02,01,05,48,22.50
2020,02,01,05,49,25.70
2020,02,01,05,50,29.00
2020,02,01,05,51,24.20
2020,02,01,05,52,22.50
2020,02,01,05,53,20.90
2020,02,01,05,54,14.50
2020,02,01,05,55,11.30
2020,02,01,05,56,16.10
2020,02,01,05,57,17.70
2020,02,01,05,58,11.30
2020,02,01,05,59,17.70
2020,02,01,06,00,14.50
2020,02,01,06,01,19.30
2020,02,01,06,02,11.30
2020,02,01,06,03,20.90
2020,02,01,06,04,12.90
2020,02,01,06,05,16.10
2020,02,01,06,06,16.10
2020,02,01,06,07,8.10
2020,02,01,06,08,11.30
2020,02,01,06,09,16.10
2020,02,01,06,10,16.10
2020,02,01,06,11,20.90
2020,02,01,06,12,17.70
2020,02,01,06,13,20.90
2020,02,01,06,14,11.30
2020,02,01,06,15,17.70
2020,02,01,06,16,20.90
2020,02,01,06,17,16.10
2020,02,01,06,18,9.60
2020,02,01,06,19,8.10
2020,02,01,06,20,16.10
2020,02,01,06,21,19.30
2020,02,01,06,22,19.30
2020,02,01,06,23,19.30
2020,02,01,06,24,14.50
2020,02,01,06,25,16.10
2020,02,01,06,26,14.50
2020,02,01,06,27,16.10
2020,02,01,06,28,14.50
2020,02,01,06,29,9.60
2020,02,01,06,30,11.30
2020,02,01,06,31,14.50
2020,02,01,06,32,1.60
2020,02,01,06,33,22.50
2020,02,01,06,34,24.20
2020,02,01,06,35,11.30
2020,02,01,06,36,12.90
2020,02,01,06,37,8.10
2020,02,01,06,38,9.60
2020,02,01,06,39,19.30
2020,02,01,06,40,19.30
2020,02,01,06,41,20.90
2020,02,01,06,42,14.50
2020,02,01,06,43,16.10
2020,02,01,06,44,9.60
2020,02,01,06,45,11.30
2020,02,01,06,46,14.50
2020,02,01,06,47,19.30
2020,02,01,06,48,20.90
2020,02,01,06,49,14.50
2020,02,01,06,50,17.70
2020,02,01,06,51,11.30
2020,02,01,06,52,17.70
2020,02,01,06,53,11.30
2020,02,01,06,54,20.90
2020,02,01,06,55,9.60
2020,02,01,06,56,20.90
2020,02,01,06,57,16.10
2020,02,01,06,58,12.90
2020,02,01,06,59,17.70
2020,02,01,07,00,16.10
2020,02,01,07,01,16.10
2020,02,01,07,02,19.30
2020,02,01,07,03,19.30
2020,02,01,07,04,17.70
2020,02,01,07,05,16.10
2020,02,01,07,06,14.50
2020,02,01,07,07,19.30
2020,02,01,07,08,17.70
2020,02,01,07,09,16.10
2020,02,01,07,10,17.70
2020,02,01,07,11,14.50
2020,02,01,07,12,16.10
2020,02,01,07,13,17.70
2020,02,01,07,14,9.60
2020,02,01,07,15,14.50
2020,02,01,07,16,16.10
2020,02,01,07,17,8.10
2020,02,01,07,18,3.20
2020,02,01,07,20,1.60
2020,02,01,07,22,1.60
2020,02,01,07,23,1.60
2020,02,01,07,24,16.10
2020,02,01,07,25,12.90
2020,02,01,07,26,9.60
2020,02,01,07,27,14.50
2020,02,01,07,28,11.30
2020,02,01,07,29,16.10
2020,02,01,07,30,12.90
2020,02,01,07,31,16.10
2020,02,01,07,32,14.50
2020,02,01,07,33,20.90
2020,02,01,07,34,11.30
2020,02,01,07,35,14.50
2020,02,01,07,36,9.60
2020,02,01,07,37,16.10
2020,02,01,07,38,20.90
2020,02,01,07,39,20.90
2020,02,01,07,40,11.30
2020,02,01,07,41,20.90
2020,02,01,07,42,25.70
2020,02,01,07,43,16.10
2020,02,01,07,44,25.70
2020,02,01,07,45,19.30
2020,02,01,07,46,27.40
2020,02,01,07,47,17.70
2020,02,01,07,48,9.60
2020,02,01,07,49,11.30
2020,02,01,07,50,19.30
2020,02,01,07,51,16.10
2020,02,01,07,52,20.90
2020,02,01,07,53,20.90
2020,02,01,07,54,11.30
2020,02,01,07,55,22.50
2020,02,01,07,56,22.50
2020,02,01,07,57,22.50
2020,02,01,07,58,16.10
2020,02,01,07,59,24.20
2020,02,01,08,00,24.20
2020,02,01,08,01,16.10
2020,02,01,08,02,12.90
2020,02,01,08,03,6.40
2020,02,01,08,04,22.50
2020,02,01,08,05,22.50
2020,02,01,08,06,25.70
2020,02,01,08,07,22.50
2020,02,01,08,08,16.10
2020,02,01,08,09,14.50
2020,02,01,08,10,17.70
2020,02,01,08,11,1.60
2020,02,01,08,12,19.30
2020,02,01,08,13,17.70
2020,02,01,08,14,12.90
2020,02,01,08,15,9.60
2020,02,01,08,16,19.30
2020,02,01,08,17,11.30
2020,02,01,08,18,12.90
2020,02,01,08,19,6.40
2020,02,01,08,20,1.60
2020,02,01,08,22,1.60
2020,02,01,08,23,1.60
2020,02,01,08,27,1.60
2020,02,01,08,29,14.50
2020,02,01,08,30,19.30
2020,02,01,08,31,19.30
2020,02,01,08,32,22.50
2020,02,01,08,33,22.50
2020,02,01,08,34,16.10
2020,02,01,08,35,16.10
2020,02,01,08,36,20.90
2020,02,01,08,37,22.50
2020,02,01,08,38,19.30
2020,02,01,08,39,20.90
2020,02,01,08,40,22.50
2020,02,01,08,41,16.10
2020,02,01,08,42,17.70
2020,02,01,08,43,14.50
2020,02,01,08,44,14.50
2020,02,01,08,45,17.70
2020,02,01,08,46,16.10
2020,02,01,08,47,1.60
2020,02,01,08,50,16.10
2020,02,01,08,51,24.20
2020,02,01,08,52,20.90
2020,02,01,08,53,14.50
2020,02,01,08,54,11.30
2020,02,01,08,55,9.60
2020,02,01,08,56,16.10
2020,02,01,08,57,1.60
2020,02,01,09,01,17.70
2020,02,01,09,02,6.40
2020,02,01,09,03,11.30
2020,02,01,09,04,24.20
2020,02,01,09,05,6.40
2020,02,01,09,06,14.50
2020,02,01,09,07,17.70
2020,02,01,09,08,17.70
2020,02,01,09,09,19.30
2020,02,01,09,10,11.30
2020,02,01,09,11,19.30
2020,02,01,09,12,20.90
2020,02,01,09,13,22.50
2020,02,01,09,14,24.20
2020,02,01,09,15,19.30
2020,02,01,09,16,17.70
2020,02,01,09,17,12.90
2020,02,01,09,18,11.30
2020,02,01,09,19,17.70
2020,02,01,09,20,17.70
2020,02,01,09,21,16.10
2020,02,01,09,22,17.70
2020,02,01,09,23,12.90
2020,02,01,09,24,6.40
2020,02,01,09,25,8.10
2020,02,01,09,26,19.30
2020,02,01,09,27,14.50
2020,02,01,09,28,16.10
2020,02,01,09,29,11.30
2020,02,01,09,30,14.50
2020,02,01,09,31,16.10
2020,02,01,09,32,20.90
2020,02,01,09,33,14.50
2020,02,01,09,34,19.30
2020,02,01,09,35,16.10
2020,02,01,09,36,8.10
2020,02,01,09,37,9.60
2020,02,01,09,38,16.10
2020,02,01,09,39,14.50
2020,02,01,09,40,16.10
2020,02,01,09,41,19.30
2020,02,01,09,42,17.70
2020,02,01,09,43,19.30
2020,02,01,09,44,16.10
2020,02,01,09,45,16.10
2020,02,01,09,46,16.10
2020,02,01,09,47,16.10
2020,02,01,09,48,19.30
2020,02,01,09,49,16.10
2020,02,01,09,50,22.50
2020,02,01,09,51,17.70
2020,02,01,09,52,12.90
2020,02,01,09,53,17.70
2020,02,01,09,54,17.70
2020,02,01,09,55,11.30
2020,02,01,09,56,17.70
2020,02,01,09,57,16.10
2020,02,01,09,58,11.30
2020,02,01,09,59,17.70
2020,02,01,10,00,22.50
2020,02,01,10,01,17.70
2020,02,01,10,02,16.10
2020,02,01,10,03,22.50
2020,02,01,10,04,20.90
2020,02,01,10,05,19.30
2020,02,01,10,06,22.50
2020,02,01,10,07,17.70
2020,02,01,10,08,22.50
2020,02,01,10,09,19.30
2020,02,01,10,10,19.30
2020,02,01,10,11,17.70
2020,02,01,10,12,14.50
2020,02,01,10,13,16.10
2020,02,01,10,14,11.30
2020,02,01,10,15,11.30
2020,02,01,10,16,14.50
2020,02,01,10,17,19.30
2020,02,01,10,18,17.70
2020,02,01,10,19,9.60
2020,02,01,10,20,17.70
2020,02,01,10,21,20.90
2020,02,01,10,22,20.90
2020,02,01,10,23,19.30
2020,02,01,10,24,20.90
2020,02,01,10,25,20.90
2020,02,01,10,26,22.50
2020,02,01,10,27,19.30
2020,02,01,10,28,17.70
2020,02,01,10,29,11.30
2020,02,01,10,30,20.90
2020,02,01,10,31,24.20
2020,02,01,10,32,22.50
2020,02,01,10,33,24.20
2020,02,01,10,34,19.30
2020,02,01,10,35,24.20
2020,02,01,10,36,16.10
2020,02,01,10,37,19.30
2020,02,01,10,38,17.70
2020,02,01,10,39,16.10
2020,02,01,10,40,19.30
2020,02,01,10,41,16.10
2020,02,01,10,42,16.10
2020,02,01,10,43,11.30
2020,02,01,10,44,11.30
2020,02,01,10,45,14.50
2020,02,01,10,46,9.60
2020,02,01,10,47,9.60
2020,02,01,10,48,8.10
2020,02,01,10,49,9.60
2020,02,01,10,50,11.30
2020,02,01,10,51,9.60
2020,02,01,10,52,14.50
2020,02,01,10,53,17.70
2020,02,01,10,54,8.10
2020,02,01,10,55,17.70
2020,02,01,10,56,17.70
2020,02,01,10,57,19.30
2020,02,01,10,58,14.50
2020,02,01,10,59,14.50
2020,02,01,11,00,8.10
2020,02,01,11,01,6.40
2020,02,01,11,02,11.30
2020,02,01,11,03,11.30
2020,02,01,11,04,8.10
2020,02,01,11,05,8.10
2020,02,01,11,06,9.60
2020,02,01,11,07,8.10
2020,02,01,11,08,4.80
2020,02,01,11,09,9.60
2020,02,01,11,10,16.10
2020,02,01,11,11,11.30
2020,02,01,11,12,11.30
2020,02,01,11,13,16.10
2020,02,01,11,14,9.60
2020,02,01,11,15,6.40
2020,02,01,11,16,9.60
2020,02,01,11,17,16.10
2020,02,01,11,18,14.50
2020,02,01,11,19,16.10
2020,02,01,11,20,19.30
2020,02,01,11,21,11.30
2020,02,01,11,22,11.30
2020,02,01,11,23,4.80
2020,02,01,11,24,9.60
2020,02,01,11,25,9.60
2020,02,01,11,26,9.60
2020,02,01,11,27,8.10
2020,02,01,11,28,14.50
2020,02,01,11,29,9.60
2020,02,01,11,30,9.60
2020,02,01,11,31,16.10
2020,02,01,11,32,16.10
2020,02,01,11,33,16.10
2020,02,01,11,34,19.30
2020,02,01,11,35,17.70
2020,02,01,11,36,16.10
2020,02,01,11,37,14.50
2020,02,01,11,38,14.50
2020,02,01,11,39,16.10
2020,02,01,11,40,14.50
2020,02,01,11,41,16.10
2020,02,01,11,42,16.10
2020,02,01,11,43,9.60
2020,02,01,11,44,11.30
2020,02,01,11,45,11.30
2020,02,01,11,46,14.50
2020,02,01,11,47,11.30
2020,02,01,11,48,11.30
2020,02,01,11,49,11.30
2020,02,01,11,50,12.90
2020,02,01,11,51,9.60
2020,02,01,11,52,14.50
2020,02,01,11,53,6.40
2020,02,01,11,54,8.10
2020,02,01,11,55,8.10
2020,02,01,12,20,1.60
2020,02,01,12,21,16.10
2020,02,01,12,22,14.50
2020,02,01,12,23,11.30
2020,02,01,12,24,8.10
2020,02,01,12,25,8.10
2020,02,01,12,26,9.60
2020,02,01,12,27,8.10
2020,02,01,12,28,9.60
2020,02,01,12,29,8.10
2020,02,01,12,30,11.30
2020,02,01,12,31,11.30
2020,02,01,12,32,6.40
2020,02,01,12,33,4.80
2020,02,01,12,34,6.40
2020,02,01,12,35,8.10
2020,02,01,12,36,9.60
2020,02,01,12,37,11.30
2020,02,01,12,38,9.60
2020,02,01,12,39,8.10
2020,02,01,12,40,8.10
2020,02,01,12,41,11.30
2020,02,01,12,42,6.40
2020,02,01,12,43,9.60
2020,02,01,12,44,11.30
2020,02,01,12,45,4.80
2020,02,01,12,46,9.60
2020,02,01,12,47,11.30
2020,02,01,12,48,11.30
2020,02,01,12,49,9.60
2020,02,01,12,50,9.60
2020,02,01,12,51,4.80
2020,02,01,12,52,11.30
2020,02,01,12,53,9.60
2020,02,01,12,54,8.10
2020,02,01,12,55,9.60
2020,02,01,12,56,6.40
2020,02,01,12,57,6.40
2020,02,01,12,58,3.20
2020,02,01,12,59,4.80
2020,02,01,13,02,1.60
2020,02,01,13,33,16.10
2020,02,01,13,34,6.40
2020,02,01,13,35,9.60
2020,02,01,13,36,6.40
2020,02,01,13,38,1.60
2020,02,01,13,39,1.60
2020,02,01,13,40,1.60
2020,02,01,13,41,1.60
2020,02,01,13,42,1.60
2020,02,01,13,45,1.60
2020,02,01,13,46,1.60
2020,02,01,13,49,1.60
2020,02,01,13,50,1.60
2020,02,01,13,51,1.60
2020,02,01,13,54,1.60
2020,02,01,13,55,1.60
2020,02,01,13,58,1.60
2020,02,01,13,59,1.60
2020,02,01,14,02,1.60
2020,02,01,14,07,1.60
2020,02,01,14,08,1.60
2020,02,01,14,09,1.60
2020,02,01,14,10,1.60
2020,02,01,14,15,1.60
2020,02,01,15,42,20.90
2020,02,01,15,43,14.50
2020,02,01,15,44,6.40
2020,02,01,17,29,1.60
2020,02,01,17,30,1.60
2020,02,01,17,31,1.60
2020,02,01,17,33,1.60
2020,02,01,17,47,1.60
2020,02,01,17,51,1.60
2020,02,01,17,52,1.60
2020,02,01,17,54,1.60
2020,02,01,17,55,1.60
2020,02,01,17,59,1.60
2020,02,01,18,01,1.60
2020,02,01,18,03,1.60
2020,02,01,18,05,17.70
2020,02,01,18,06,1.60
2020,02,01,18,09,1.60
2020,02,01,18,10,1.60
2020,02,01,18,11,1.60
2020,02,01,18,12,1.60
2020,02,01,18,13,1.60
2020,02,01,18,15,1.60
2020,02,01,18,16,1.60
2020,02,01,18,17,1.60
2020,02,01,18,18,1.60
2020,02,01,18,19,1.60
2020,02,01,18,20,1.60
2020,02,01,18,21,1.60
2020,02,01,18,22,1.60
2020,02,01,18,24,1.60
2020,02,01,18,26,1.60
2020,02,01,18,28,1.60
2020,02,01,18,30,1.60
2020,02,01,18,32,1.60
2020,02,01,18,33,1.60
2020,02,01,18,37,1.60
2020,02,01,18,44,1.60
2020,02,01,18,45,19.30
2020,02,01,18,46,12.90
2020,02,01,18,47,19.30
2020,02,01,18,48,1.60
2020,02,01,18,49,17.70
2020,02,01,18,50,9.60
2020,02,01,18,51,1.60
2020,02,01,18,53,1.60
2020,02,01,18,54,1.60
2020,02,01,18,55,1.60
2020,02,01,18,56,1.60
2020,02,01,18,57,1.60
2020,02,01,18,58,1.60
2020,02,01,18,59,20.90
2020,02,01,19,00,6.40
2020,02,01,19,02,1.60
2020,02,01,19,48,1.60
2020,02,01,19,52,1.60
2020,02,01,21,26,1.60
2020,02,01,21,27,1.60
2020,02,01,21,29,1.60
2020,02,01,21,55,1.60
2020,02,01,21,56,1.60
2020,02,01,21,58,1.60
